Regional Weather Roundup
Issued by NWS

Home | Current Version | Previous Version | Text Only | Print | Product List | Glossary Off
Versions: 1 2 3 4 5 6 7 8 9 10 11 12 13 14 15 16 17 18 19 20 21 22 23 24 25 26 27 28 29 30 31 32 33 34 35 36 37 38 39 40 41 42 43 44 45 46 47 48 49 50

000
ASUS45 KBOU 050810
RWRCO

WEATHER ROUNDUP FOR COLORADO
NATIONAL WEATHER SERVICE DENVER/BOULDER CO
200 AM MDT SUN JUL 05 2015

NOTE: "FAIR" INDICATES FEW OR NO CLOUDS BELOW 12000 FEET WITH NO
SIGNIFICANT WEATHER AND/OR OBSTRUCTIONS TO VISIBILITY.

COZ001>005-013-030-031-050900-
...NORTHWEST COLORADO...

CITY           SKY/WX    TMP DP  RH WIND       PRES   REMARKS
CRAIG          MOCLDY    64  51  62 E6        30.11S
HAYDEN         MOCLDY    61  46  59 E15       30.13F
MEEKER         CLOUDY    64  49  57 E3        30.15R
MOUNT WERNER   NOT AVBL
STEAMBOAT SPGS MOCLDY    55  46  71 CALM      30.17S
WALDEN         CLOUDY    52  43  71 E7        30.25F
$$

COZ006>008-011-050900-
...WEST CENTRAL VALLEYS...

CITY           SKY/WX    TMP DP  RH WIND       PRES   REMARKS
GRAND JUNCTION CLOUDY    67  60  78 N25       30.09R
MONTROSE       CLOUDY    73  50  44 VRB3      30.16R
EAGLE          MOCLDY    63  48  59 SW5       30.20R
RIFLE          CLOUDY    64  58  80 E7        30.12R
DELTA          CLOUDY    77  53  43 W10G17    30.11S
NUCLA          CLOUDY    63  59  88 W3        30.25S
$$

COZ017>023-064>068-050900-
...SOUTHWEST COLORADO...

CITY           SKY/WX    TMP DP  RH WIND       PRES   REMARKS
DURANGO        CLOUDY    59  57  93 CALM      30.22F
CORTEZ         MOCLDY    64  58  80 NE7       30.21F
PAGOSA SPRINGS MOCLDY    58  56  93 CALM      30.29S
TELLURIDE      CLOUDY    56  49  80 W6        30.41F
WOLF CREEK PAS NOT AVBL
$$

COZ009-010-012-014-032>034-037-058>063-050900-
...CENTRAL COLORADO...

CITY           SKY/WX    TMP DP  RH WIND       PRES   REMARKS
ASPEN          CLOUDY    62  47  57 S7        30.24F
BUENA VISTA    CLOUDY    53  47  82 CALM      30.28F
COPPER MTN     PTCLDY    54  37  54 S15       30.57F
BERTHOUD PASS  FAIR      45  36  70 W15G29    30.61F
COTTONWOOD PAS NOT AVBL
GUNNISON       CLOUDY    57  46  67 N3        30.31F
KREMMLING      PTCLDY    54  43  66 CALM      30.24S
LEADVILLE      MOCLDY    46  44  93 E5        30.41F
SALIDA         CLOUDY    63  48  58 NW12      30.30F
SUNLIGHT       CLOUDY    54  46  76 SW3       30.49F
WILKERSON PASS MOCLDY    50  41  71 W8        30.52F
$$

COZ069>075-050900-
...SAN LUIS VALLEY/SANGRE DE CRISTO MOUNTAINS...

CITY           SKY/WX    TMP DP  RH WIND       PRES   REMARKS
ALAMOSA        MOCLDY    54  48  80 W5        30.25S
LA VETA PASS   MOCLDY    50  37  62 MISG      30.41F
SAGUACHE       CLOUDY    59  52  77 NW13      30.29F
$$

COZ035-036-038>040-050900-
...NORTHERN COLORADO FRONT RANGE...

CITY           SKY/WX    TMP DP  RH WIND       PRES   REMARKS
DENVER INTL AP PTCLDY    70  50  49 SW13      29.98F
DMNS CITY PARK   N/A     68  51  54 SE9       29.99F
AURORA         PTCLDY    66  51  58 SW8       30.02F
FRONT RANGE AP PTCLDY    70  52  52 MISG      30.00F
ERIE MUNI ARPT PTCLDY    61  52  72 S3        29.97F
BOULDER MUN AP PTCLDY    68  52  56 SW6       29.98F
CENTENNIAL     PTCLDY    67  49  52 SW10      30.03F
BROOMFIELD     PTCLDY    64  50  59 W7        30.02S
FORT COLLINS   CLEAR     68  57  68 CALM      29.97F
LONGMONT       CLEAR     64  53  68 CALM      29.99F
$$

COZ041-046-047-076>085-087-088-050900-
...PIKES PEAK/PALMER DIVIDE AND SOUTHERN FOOTHILLS...

CITY           SKY/WX    TMP DP  RH WIND       PRES   REMARKS
COLO. SPRINGS  MOCLDY    66  50  56 NE3       30.08F
A. F. ACADEMY  PTCLDY    63  49  60 E7        30.10F
ELLICOTT       PTCLDY   N/A N/A N/A E8        30.06F
FALCON         PTCLDY    64  47  53 CALM      30.14S
FORT CARSON    PTCLDY    62  51  68 NE6       30.05S
LIMON          PTCLDY    55  54  96 N5        30.00F
MONUMENT HILL  NOT AVBL
TRINIDAD       MOCLDY    61  52  72 NW7       30.07F
$$

COZ042>045-048>051-090-091-050900-
...NORTHEAST COLORADO...

CITY           SKY/WX    TMP DP  RH WIND       PRES   REMARKS
GREELEY ARPT   CLEAR     64  57  77 W8        29.95F
AKRON          PTCLDY    67  53  61 S6        29.95F
BURLINGTON     PTCLDY    68  58  70 SE13      29.92F
WRAY           CLEAR     72  59  63 S5        29.89F
STERLING       PTCLDY    66  55  68 SW5         N/A
HOLYOKE        CLEAR     68  61  77 S7        29.89F
FORT MORGAN    PTCLDY    63  52  67 S3        29.93F
$$

COZ086-089-092>099-050900-
...SOUTHEAST COLORADO...

CITY           SKY/WX    TMP DP  RH WIND       PRES   REMARKS
PUEBLO         MOCLDY    70  54  56 VRB5      29.97S
LA JUNTA       PTCLDY    70  52  52 S8        29.94F
LAMAR          PTCLDY    67  57  70 VRB5      29.89S
SPRINGFIELD      N/A     68  61  78 S14       29.98F
$$



USA.gov is the U.S. government's official web portal to all federal, state and local government web resources and services.